星链-35393(STARLINK-35393)

导读

STARLINK-35393是美国太空探索技术公司(SpaceX)旗下星链(Starlink)星座的卫星,于2025年9月29日由美国发射。星链计划计划在近地轨道部署超4万颗卫星,旨在为全球提供高速互联网接入服务,STARLINK-35393的发射是SpaceX推进星链二代星座部署、扩展全球网络覆盖与通信能力的一部分。

基本信息
目录编号:
65827
目录名称:
STARLINK-35393
国际标识:
2025-221E
轨道中心:
EARTH
卫星名称:
星链-35393
卫星全名:
星链-35393(STARLINK-35393)
卫星状态:
在轨 (已飞行349 天)
发射日期:
2025-09-29 UTC
国别 :
美国 (US)
星等 :
--
该卫星已列入 空间交会检测服务 Space Conjunction Data Service (SCDS) ,当前飞行风险评估等级: 高风险
轨道信息
数据来源 国际轨道数据
星历时间: 2026-09-12T11:21:02+0800
1天前
查看轨道信息
半长轴: 6840.834km
偏心率: 0.0001142
轨道倾角: 53.158°
近地点辐角 90.658°
升交点赤经 298.480°
平近点角 269.455°
近地点: 461.915km
远地点: 463.479km
周期: 93.848分钟
每日圈数: 15.344022
详细信息
固有亮度:
5
最大亮度:
2.5
卫星平台:
Starlink V1.0
覆盖范围:
全球
运营商:
太空探索技术公司
运营商所在国:
美国
制造商(研发单位):
太空探索技术公司
制造商所在国:
美国
使用方式:
暂无
卫星简介
Starlink 计划是 SpaceX 推出的全球卫星互联网项目,通过发射低轨道卫星,为全球尤其是偏远地区提供高速、低延迟的互联网服务。自 2019 年起,Starlink 已部署数千颗卫星,旨在缩小全球数字鸿沟,推动互联网普及。该项目还为军事、航空等行业提供通信支持,带来广泛经济效益。
2D轨道图
3D轨道图
轨道高度分析图
轨道倾角分析图
轨道综合分析图
查看轨道综合分析图
交会数据列表
事件ID 空间交会对象 最接近时刻(TCA) 交会距离 交会风险概率(CRP) 交会风险指数(CRI) 操作
CDM_260914-010006-420806-582721
2026-09-14T
01:00:46+0000
0.474 km
远距离
1.196633E-4 高风险 0.77
CDM_260914-093606-420806-582722
2026-09-14T
09:36:37+0000
1.054 km
极远距离
1.019818E-5 中风险 0.55
CDM_260914-080206-420806-582721
2026-09-14T
08:02:50+0000
1.602 km
极远距离
2.574972E-6 低风险 0.43
CDM_260913-232606-420806-582721
2026-09-13T
23:26:59+0000
2.339 km
极远距离
1.023675E-6 低风险 0.35
CDM_260914-023406-420806-582722
2026-09-14T
02:34:34+0000
2.604 km
极远距离
8.555328E-7 极低风险 0.34
与全量物体交会距离演化趋势
与全量物体交会风险概率演化趋势